Theta_e
292 295 297 296 298 299 294 297 294 296 295 298 300 304 307 312 317 319 320 322 325 326 327 326 328 334 337 341 345 346 345 346 346 348 349 349 348 346 347 349 350 347 345 343
290 296 298 296 298 300 300 300 297 294 294 300 303 302 303 307 314 317 319 323 323 324 328 329 330 333 337 338 343 347 346 346 348 348 350 350 350 350 348 348 348 348 345 344
285 293 293 292 297 299 300 301 300 294 297 300 300 301 302 304 308 316 320 322 320 320 324 327 331 334 335 338 342 347 347 348 349 349 349 351 352 352 351 349 349 347 346 344
285 289 285 297 303 304 301 301 300 299 300 302 303 305 307 306 308 313 317 319 319 321 321 322 328 333 337 339 339 345 347 348 350 350 350 351 352 352 353 353 350 349 346 345
285 285 292 299 300 300 298 297 303 302 303 303 304 303 303 308 309 314 316 317 322 324 325 324 326 332 335 336 339 343 345 347 350 351 351 351 351 352 353 355 353 352 348 344
287 285 285 295 308 312 305 297 304 304 304 304 303 298 305 307 312 314 315 315 318 323 327 328 329 334 336 337 339 340 345 347 350 352 352 352 353 353 354 355 354 353 349 345
289 288 292 306 310 313 295 297 306 310 307 304 302 305 308 309 314 311 312 314 316 321 327 331 331 332 333 336 337 341 344 348 349 351 353 354 354 355 355 355 354 352 349 347
290 290 287 310 310 301 304 309 312 314 310 305 306 308 313 318 321 322 320 314 313 314 322 327 334 333 331 331 337 340 342 342 345 349 352 353 353 354 355 355 353 350 348 345
295 295 305 309 310 312 313 311 311 318 314 314 317 319 321 322 322 325 325 332 327 312 312 313 326 335 332 334 336 336 338 339 341 344 350 352 352 353 354 354 352 348 344 339
299 306 308 311 313 313 315 317 328 329 325 323 326 328 329 332 333 335 337 339 339 338 338 338 342 332 334 336 336 334 334 335 338 341 344 349 353 354 354 353 349 344 340 337
298 306 311 312 312 313 314 317 325 328 328 329 332 331 332 334 335 338 340 341 342 341 340 341 344 344 345 343 340 339 339 337 340 343 343 319 312 311 332 333 341 341 338 337
297 306 308 308 313 316 314 314 316 318 320 321 324 327 331 330 332 334 335 337 339 341 342 342 342 341 343 346 347 347 346 345 340 329 327 324 326 324 309 310 314 310 312 321
307 310 311 313 314 316 315 315 317 317 318 319 322 324 326 326 328 326 333 334 334 336 339 339 338 338 340 341 340 336 333 330 329 327 328 329 332 329 322 316 311 306 303 304
312 310 309 312 311 315 316 317 317 317 318 318 321 324 326 327 328 330 330 330 332 332 331 333 337 336 338 338 336 332 330 320 329 328 328 327 326 325 325 325 323 318 302 307
311 311 311 313 314 313 316 316 314 314 316 316 319 320 323 326 327 328 329 329 329 329 329 332 333 333 336 335 333 332 333 332 330 328 326 324 325 323 321 319 316 309 309 305
311 311 311 310 310 311 312 311 312 313 315 315 317 320 322 327 327 328 328 328 326 324 324 326 327 327 330 334 333 332 330 323 325 326 324 325 323 321 317 315 315 317 318 312
306 306 307 306 308 308 307 308 308 309 313 314 315 320 322 323 324 323 321 321 321 322 324 323 322 324 325 327 329 332 331 330 326 327 325 324 322 321 318 316 316 316 314 310
312 312 312 312 311 312 312 313 313 314 314 316 317 321 321 320 318 320 320 321 319 316 316 319 322 322 322 323 323 323 325 328 329 326 325 322 320 318 314 314 313 312 306 302
311 311 314 316 316 316 316 316 316 316 317 318 318 317 317 317 318 319 318 315 315 316 316 318 321 321 319 324 322 321 321 321 321 321 323 318 319 317 314 313 311 310 309 306
313 314 316 315 315 315 314 316 316 316 317 318 318 318 317 318 317 316 314 310 310 312 312 314 313 315 318 319 322 319 319 320 320 318 319 319 320 319 317 311 315 313 312 310
313 314 313 313 313 314 314 315 315 315 316 317 316 315 315 315 316 316 311 308 312 310 310 312 311 310 310 314 320 320 318 318 320 321 320 320 319 319 319 319 318 316 314 313
307 309 309 308 307 307 310 312 314 313 313 315 316 315 312 309 307 306 308 309 309 308 308 309 309 313 312 312 311 320 321 322 320 320 320 320 319 319 317 316 316 316 314 312
299 300 300 301 302 304 306 306 306 306 306 308 310 311 310 309 308 306 303 307 307 307 306 308 310 311 311 309 306 314 321 321 321 321 321 319 318 316 315 316 314 313 312 313
298 299 299 300 301 300 298 300 302 303 305 306 307 308 307 307 309 309 307 306 306 307 307 308 309 309 310 311 310 309 307 304 307 314 313 307 312 312 311 311 311 312 311 310
297 297 297 298 297 297 298 299 301 301 302 302 302 302 302 303 304 304 307 308 305 306 307 308 308 308 310 310 311 310 310 308 308 309 307 306 305 304 306 305 304 307 308 308
295 296 297 296 295 296 297 299 298 299 299 299 299 300 301 302 302 304 303 302 300 301 300 300 302 306 307 307 307 308 309 309 309 308 307 307 307 306 304 302 302 301 301 302
297 296 297 297 297 298 298 297 295 295 296 296 296 298 298 300 299 299 299 298 298 298 298 298 297 298 298 300 304 305 306 307 302 307 307 305 304 303 301 300 299 298 297 296
Wind_Speed
7 11 15 15 15 25 19 23 17 13 14 13 10 10 10 10 6 8 9 14 18 18 17 15 14 16 17 16 17 19 19 20 22 19 18 18 17 17 16 16 14 14 13 13
7 10 13 16 19 24 29 22 14 7 8 10 15 9 8 11 9 11 14 17 17 18 18 18 19 21 22 20 19 19 20 22 20 19 18 19 18 16 16 16 16 14 15 16
5 6 11 14 30 20 12 13 18 15 9 8 8 10 13 13 11 14 15 18 15 13 16 16 18 19 20 22 20 22 22 19 20 19 19 19 17 16 18 18 16 16 17 16
6 5 9 12 10 19 17 9 7 5 11 11 15 14 15 13 11 12 11 12 12 11 13 12 17 18 18 14 17 18 19 18 18 19 19 18 18 19 17 15 17 16 15 17
4 4 10 12 3 6 13 10 7 12 10 10 11 1 6 7 7 12 12 13 14 13 11 10 11 12 12 12 15 15 18 18 19 20 20 19 19 21 17 16 15 16 12 14
3 5 7 2 15 21 14 19 16 13 11 10 7 4 12 7 8 11 10 8 9 10 7 9 9 14 14 14 15 18 18 20 20 20 20 21 21 20 17 15 17 13 13 14
11 5 10 12 21 10 8 7 15 12 16 11 8 10 11 7 8 7 8 10 4 8 12 14 11 13 15 15 19 21 18 16 15 17 20 20 17 15 16 17 14 14 14 14
8 8 9 12 9 8 10 23 19 10 7 11 9 7 5 7 6 8 9 8 8 6 9 9 8 12 12 15 19 16 16 16 17 17 14 12 16 14 14 14 15 15 15 11
9 7 4 4 3 9 13 20 17 12 8 8 8 6 8 7 5 5 6 4 3 3 3 1 3 7 13 20 17 16 15 17 18 17 17 17 18 19 16 18 14 12 10 10
5 5 6 9 13 14 20 20 12 8 5 6 9 5 7 6 5 6 6 7 5 8 8 7 5 3 6 7 4 3 7 9 7 11 12 8 7 10 11 12 13 11 12 9
15 4 4 9 12 17 24 16 10 14 16 13 9 8 7 7 9 8 8 10 9 10 9 10 8 7 6 3 6 6 5 4 4 4 7 12 13 9 4 6 2 8 9 11
10 6 4 5 7 15 18 10 11 16 18 18 18 14 12 12 10 10 10 10 11 11 10 10 11 12 11 9 6 7 7 7 6 7 7 8 10 13 21 21 25 21 30 11
5 3 16 8 10 14 11 4 11 15 14 16 14 10 11 7 9 7 9 9 9 7 7 8 8 10 9 9 11 11 10 10 8 7 6 5 6 11 9 6 19 28 11 3
4 7 10 5 8 11 9 4 12 15 14 13 13 14 11 10 9 11 10 7 6 8 7 6 7 6 5 9 11 11 11 12 8 6 5 4 8 6 5 10 12 6 11 10
3 4 13 10 6 10 9 5 15 13 11 14 13 13 12 12 11 12 9 7 9 11 11 9 10 8 5 8 10 10 8 7 8 9 7 6 9 5 5 5 6 8 7 8
8 6 12 10 10 7 7 9 12 8 9 10 11 12 10 12 13 13 8 9 12 10 7 7 7 4 5 6 9 9 10 16 12 3 8 6 7 8 7 8 9 9 9 9
14 9 10 10 9 7 7 4 5 5 7 8 7 12 12 11 15 11 7 8 10 9 8 8 8 7 7 6 5 7 8 8 15 5 6 5 6 7 6 6 6 6 7 8
13 11 11 9 6 7 6 6 6 7 7 5 6 8 13 10 11 4 5 6 7 10 10 8 7 8 8 6 6 4 4 6 7 8 7 6 3 5 5 6 5 6 4 4
12 14 12 10 6 6 5 6 6 6 7 5 10 8 12 8 5 6 6 10 9 9 7 7 8 7 7 9 7 5 5 5 5 4 4 11 5 4 5 6 5 5 6 7
9 10 14 12 13 11 9 7 6 6 4 7 11 11 10 6 5 7 8 8 5 2 3 5 6 6 6 4 5 5 6 7 6 5 4 3 5 5 5 6 7 6 5 4
15 14 11 9 7 9 10 11 10 10 10 10 8 7 6 7 6 4 11 7 7 6 7 9 5 4 2 2 0 4 4 5 4 4 4 4 3 3 4 5 5 6 8 7
14 14 13 14 14 13 10 10 7 8 9 10 9 6 6 5 6 9 8 5 4 11 7 6 5 9 5 5 1 3 4 4 4 5 5 3 0 1 4 3 3 3 4 3
15 15 16 16 14 12 16 12 13 14 13 9 7 6 5 4 4 5 5 6 4 5 5 6 11 16 14 8 6 4 3 4 4 2 4 5 4 4 4 5 5 5 5 5
16 15 13 13 16 14 13 10 9 12 14 13 14 13 10 5 6 6 4 7 10 10 8 8 13 17 15 9 10 10 8 6 5 3 3 5 3 4 2 2 2 1 1 2
13 14 16 15 12 8 10 9 12 11 11 13 15 13 14 10 8 7 8 9 15 11 9 14 17 16 9 10 11 10 10 10 9 8 8 6 5 5 5 6 6 4 4 4
13 9 9 11 7 6 7 9 9 9 9 10 11 10 10 12 10 9 11 13 13 14 11 10 10 9 9 8 8 9 8 8 10 10 10 9 9 9 9 9 9 9 8 8
13 15 10 11 9 8 9 9 10 9 9 8 10 9 10 9 11 12 13 11 11 11 11 11 10 11 9 7 8 7 7 8 10 8 9 9 9 10 10 9 8 8 9 9
Wind_Direction
285 294 287 262 226 216 211 219 202 223 205 230 202 204 221 220 214 183 206 201 201 201 192 187 186 193 201 201 196 192 194 199 202 195 199 203 204 203 207 205 199 200 194 194
283 263 254 260 257 233 217 218 230 195 228 212 218 219 218 223 204 201 203 203 213 211 199 197 192 192 193 191 191 191 196 203 199 197 197 202 201 200 202 206 206 192 196 193
269 306 319 255 230 244 247 204 201 207 201 197 240 203 219 231 216 203 204 215 197 208 207 206 203 196 199 196 184 187 198 198 198 198 200 201 200 199 203 204 200 201 198 193
267 314 221 281 195 220 230 229 202 149 189 200 210 222 221 211 201 216 201 208 219 203 208 212 212 199 202 186 190 195 196 195 194 196 204 201 198 203 205 201 204 202 201 199
233 242 289 306 1 236 183 230 208 188 201 208 222 31 261 226 214 205 201 203 213 208 214 205 188 187 164 171 182 188 196 198 196 196 199 198 201 202 199 200 202 208 197 190
184 230 246 101 328 322 312 224 201 183 199 197 127 193 248 199 209 226 219 205 185 200 188 174 182 155 161 174 180 196 198 201 198 198 199 201 202 199 199 200 205 198 194 186
247 254 280 349 331 315 163 242 307 187 200 177 175 199 223 173 206 203 196 208 212 166 182 198 171 166 182 184 193 202 201 200 199 202 203 203 201 199 196 198 201 196 192 192
231 220 255 7 10 8 306 300 292 262 189 177 197 179 191 151 163 160 167 174 189 196 194 181 166 174 186 195 211 200 193 194 195 196 199 199 195 194 196 198 198 192 193 184
203 228 151 165 244 302 314 294 286 284 136 133 143 174 150 144 146 115 106 94 90 218 273 353 178 189 191 214 205 194 186 195 199 197 199 190 192 193 188 187 192 199 181 174
259 222 233 41 5 349 332 309 298 325 19 112 112 82 94 99 73 58 45 46 41 66 60 46 18 306 275 340 18 151 183 202 211 200 196 206 209 203 204 187 180 179 180 164
225 274 269 52 17 342 319 311 23 38 37 38 66 55 65 58 48 41 38 34 44 52 51 44 46 50 18 304 168 177 181 184 162 149 134 90 76 39 23 23 164 176 163 152
218 185 127 81 11 327 309 312 46 54 41 39 41 40 44 48 39 38 38 33 40 36 44 36 37 34 25 30 55 78 72 62 69 93 97 101 111 88 75 80 70 27 5 302
225 197 110 107 31 310 277 344 61 64 58 55 47 50 51 54 41 57 60 57 58 53 49 43 41 44 40 51 70 73 78 77 77 73 91 110 122 122 111 127 111 119 131 171
165 130 94 134 148 300 338 17 66 63 58 56 54 51 34 48 51 47 41 45 57 64 57 65 72 70 90 93 88 90 98 96 96 91 87 116 89 357 91 142 155 144 83 150
218 321 109 100 78 1 306 18 64 62 56 50 46 53 48 40 46 50 25 22 60 62 62 74 68 56 69 99 105 104 108 112 125 126 122 146 112 90 73 123 116 98 116 93
117 111 94 98 88 88 22 3 59 44 57 61 60 50 36 74 63 52 34 38 57 45 25 43 53 8 35 82 102 106 104 96 97 97 109 137 113 132 145 141 138 142 136 136
114 102 99 77 80 65 52 21 33 30 26 20 57 65 41 75 84 77 58 55 59 46 34 36 19 12 30 44 88 109 108 124 122 134 120 107 135 154 127 126 124 126 126 143
100 102 87 92 88 79 49 19 31 41 33 9 25 82 95 51 71 75 57 56 64 53 27 10 22 34 37 26 57 58 77 110 123 129 123 122 116 112 107 115 125 122 98 104
60 73 69 64 64 86 73 45 32 45 41 48 72 63 69 70 67 62 62 61 50 55 360 348 15 65 59 43 52 54 64 79 74 78 97 116 112 116 122 128 130 138 151 154
67 68 83 62 60 57 57 33 20 45 34 68 69 59 61 55 67 70 70 60 17 354 331 15 36 25 12 20 68 88 91 89 89 81 97 118 132 140 136 141 142 138 134 151
84 90 86 85 75 60 56 57 53 47 37 33 63 74 61 35 19 55 62 58 351 356 27 34 24 15 1 12 79 115 128 120 111 104 79 77 79 138 134 154 168 161 164 176
58 61 57 52 51 46 25 47 22 46 58 66 47 44 72 55 55 55 53 81 351 10 17 15 4 353 354 33 94 157 129 113 124 140 140 98 346 245 94 131 163 160 155 163
50 52 50 51 49 45 49 49 55 56 54 48 50 43 50 53 42 65 53 344 44 27 24 23 13 27 19 24 22 45 89 110 122 177 130 166 186 164 188 179 161 159 163 165
48 49 49 49 51 42 41 20 34 44 51 51 47 42 35 20 32 28 22 21 51 62 52 29 37 37 39 29 27 27 22 24 19 31 86 97 95 92 94 168 174 184 195 176
47 46 36 37 40 26 30 17 41 27 42 42 37 34 37 32 50 16 39 44 39 44 43 25 35 36 40 44 46 41 35 26 26 37 28 28 47 61 53 51 51 59 62 45
35 40 45 44 39 26 28 35 49 30 39 45 35 26 32 38 34 42 45 43 45 41 37 25 27 37 41 33 44 48 44 37 41 42 44 42 43 57 56 57 54 54 49 46
43 37 39 41 26 28 41 43 47 35 33 44 53 29 36 41 41 44 44 42 51 49 46 33 25 27 27 29 23 27 45 51 43 48 51 50 48 52 47 40 51 60 59 55